[[{"header":{"parameterUnit":"m.s-1","parameterCategory":1,"la1":30.2991,"la2":30.254,"lo1":-89.0895,"lo2":-89.0444,"dy":0.0017,"dx":0.0017,"nx":28,"ny":28,"refTime":"2025-07-26T03:00:00:Z","depth":0,"parameterNumber":2,"parameterNumberName":"U-component_of_WINDS"},"data":[0,0,0,0,0,0,0,0,0,0,0,0,0,0,0,0,0,0,0,0,0,0,0,0,0,0,0,0,0,0,0,0,0,0,0,0,0,0,0,0,0,0,0,0,0,0,0,0,0,0,0,0,0,0,0,0,0,0,-1.5499,-1.5499,0,-1.5542,-1.5543,-1.5543,-1.555,-1.5549,-1.5549,-1.5548,-1.5593,-1.5595,-1.5596,0,0,0,0,0,0,0,0,0,0,0,0,0,-1.5421,-1.5423,-1.5499,-1.5499,-1.55,-1.5542,-1.5543,-1.5543,-1.555,-1.5549,-1.5549,-1.5548,-1.5593,-1.5595,-1.5597,0,0,0,0,0,0,0,0,0,0,0,0,0,-1.5459,-1.5423,-1.5499,-1.5508,-1.5509,-1.5542,-1.5543,-1.5544,-1.555,-1.5549,-1.5548,-1.5548,-1.5592,-1.5595,-1.5597,-1.5624,0,0,-1.5604,-1.5605,0,0,0,0,0,0,0,0,-1.5457,-1.5462,-1.5506,-1.5507,-1.5509,-1.554,-1.5532,-1.557,-1.555,-1.5534,-1.5548,-1.5548,-1.5576,-1.558,-1.5589,-1.5626,-1.5628,-1.5604,-1.5606,-1.5607,-1.5607,0,0,0,0,0,0,0,-1.5454,-1.546,-1.5516,-1.5507,-1.5509,-1.551,-1.5515,-1.5539,-1.5558,-1.5536,-1.5536,-1.5541,-1.5577,-1.5587,-1.559,-1.5628,-1.5604,-1.5606,-1.5608,-1.5609,-1.5688,-1.5689,0,0,0,0,0,0,-1.545,-1.5458,-1.5515,-1.5517,-1.5481,-1.5512,-1.5517,-1.5531,-1.5558,-1.5561,-1.5542,-1.5541,-1.5583,-1.5588,-1.5592,-1.5625,-1.5607,-1.5609,-1.561,-1.5688,-1.5689,-1.5689,0,0,0,0,0,0,-1.5448,-1.5455,-1.5513,-1.5488,-1.5495,-1.5514,-1.5529,-1.5532,-1.5542,-1.5562,-1.5566,-1.5549,-1.5583,-1.5589,-1.5616,-1.5626,-1.561,-1.5612,-1.5687,-1.5688,-1.5689,-1.569,0,0,0,0,0,0,-1.5446,-1.5454,-1.5465,-1.5488,-1.5497,-1.5536,-1.553,-1.5533,-1.5546,-1.5546,-1.557,-1.5573,-1.5583,-1.5612,-1.5618,-1.5629,-1.5614,-1.5686,-1.5687,-1.5689,-1.5689,-1.5691,-1.5693,0,0,0,0,0,-1.5443,-1.5464,-1.5465,-1.5472,-1.551,-1.5536,-1.5541,-1.5552,-1.5547,-1.5557,-1.557,-1.5573,-1.5624,-1.5615,-1.5621,-1.5634,-1.5685,-1.5687,-1.5688,-1.5689,-1.5691,-1.5693,0,0,0,0,0,0,-1.5441,-1.5467,-1.5469,-1.5497,-1.5515,-1.5537,-1.5551,-1.5554,-1.5573,-1.5572,-1.5585,-1.559,-1.5616,-1.5628,-1.5617,-1.5661,-1.5654,-1.5657,-1.5652,-1.5655,-1.5656,-1.5653,-1.5616,0,0,0,0,0,-1.5444,-1.5463,-1.5485,-1.5508,-1.5516,-1.5532,-1.5544,-1.5551,-1.5569,-1.5576,-1.5592,-1.561,-1.563,-1.5643,-1.5663,-1.5691,-1.5696,-1.5703,-1.5705,-1.5706,-1.5708,-1.5724,-1.5727,-1.5694,-1.5694,-1.5694,0,0,-1.545,-1.5467,-1.5478,-1.5508,-1.5522,-1.5542,-1.5538,-1.5559,-1.5574,-1.558,-1.5606,-1.5618,-1.5638,-1.5666,-1.5679,-1.5676,-1.5719,-1.5708,-1.5709,-1.5711,-1.5726,-1.5729,-1.5732,-1.5695,-1.5695,-1.5695,0,0,-1.5472,-1.5486,-1.5507,-1.5521,-1.5542,-1.5552,-1.5557,-1.5579,-1.5587,-1.5614,-1.5618,-1.5636,-1.5671,-1.5685,-1.5697,-1.5723,-1.5726,-1.573,-1.5739,-1.5754,-1.5756,-1.5759,-1.5767,-1.5771,-1.5732,-1.5732,-1.5732,0,-1.5477,-1.5506,-1.5517,-1.5537,-1.555,-1.5556,-1.5577,-1.559,-1.5617,-1.5626,-1.5622,-1.5666,-1.568,-1.5711,-1.5718,-1.5727,-1.5733,-1.5727,-1.5755,-1.5757,-1.576,-1.5768,-1.5772,-1.5732,-1.5732,-1.5732,-1.5732,0,-1.5511,-1.5532,-1.5546,-1.5571,-1.5585,-1.5606,-1.562,-1.5633,-1.5638,-1.5649,-1.5676,-1.5693,-1.5716,-1.5724,-1.573,-1.5756,-1.5753,-1.5752,-1.5746,-1.5763,-1.5771,-1.5775,-1.5733,-1.5732,-1.5732,-1.5732,0,0,-1.5533,-1.5563,-1.5568,-1.5579,-1.5603,-1.5619,-1.564,-1.5662,-1.5673,-1.5692,-1.5709,-1.5738,-1.5737,-1.5751,-1.5758,-1.5771,-1.579,-1.5769,-1.5769,-1.5772,-1.582,-1.582,-1.5824,-1.5792,-1.5793,-1.5793,-1.5818,0,-1.5557,-1.5594,-1.5603,-1.5635,-1.5654,-1.5659,-1.5677,-1.5694,-1.5704,-1.5722,-1.5733,-1.5754,-1.5751,-1.5759,-1.5772,-1.5785,-1.58,-1.5784,-1.5809,-1.5809,-1.5803,-1.5828,-1.5829,-1.5851,-1.5821,-1.5822,-1.5822,0,-1.559,-1.5608,-1.5641,-1.5662,-1.567,-1.5686,-1.5707,-1.5724,-1.5742,-1.5749,-1.5764,-1.577,-1.5791,-1.5784,-1.5814,-1.5803,-1.5814,-1.5821,-1.5823,-1.5825,-1.5817,-1.5831,-1.5858,-1.5862,-1.5827,-1.5827,-1.5827,0,-1.5602,-1.5635,-1.5658,-1.5668,-1.5693,-1.5704,-1.5715,-1.5733,-1.5745,-1.5764,-1.5772,-1.5793,-1.5804,-1.5821,-1.5832,-1.5825,-1.5861,-1.5855,-1.5867,-1.5866,-1.5874,-1.5873,-1.5903,-1.5881,-1.5881,-1.5881,-1.5881,0,-1.5627,-1.5647,-1.5664,-1.5679,-1.5701,-1.5712,-1.5734,-1.5745,-1.5761,-1.5778,-1.5784,-1.58,-1.5814,-1.5832,-1.5841,-1.5864,-1.5869,-1.5875,-1.5877,-1.5874,-1.5874,-1.5882,-1.588,-1.5882,-1.5882,-1.5882,-1.5882,0,-1.5645,-1.5657,-1.5683,-1.5704,-1.571,-1.5725,-1.5743,-1.5758,-1.5768,-1.5789,-1.5795,-1.5811,-1.5832,-1.5845,-1.5872,-1.5878,-1.5904,-1.5905,-1.5897,-1.5898,-1.5909,-1.5908,-1.5945,-1.595,-1.5925,-1.5926,-1.5926,0,-1.566,-1.5675,-1.5698,-1.5709,-1.572,-1.5739,-1.5751,-1.5763,-1.5776,-1.5798,-1.5809,-1.5831,-1.5848,-1.5882,-1.5896,-1.5916,-1.5919,-1.593,-1.5922,-1.5918,-1.5918,-1.5917,-1.5918,-1.5931,-1.5932,-1.5932,-1.5932,0,-1.5686,-1.5691,-1.5709,-1.5729,-1.5743,-1.576,-1.5776,-1.5785,-1.5799,-1.5813,-1.5835,-1.5848,-1.5875,-1.5896,-1.5918,-1.5929,-1.5933,-1.5934,-1.5938,-1.5935,-1.593,-1.5933,-1.5901,-1.5934,-1.5933,-1.5933,-1.5933,-1.5933,-1.5703,-1.5716,-1.5734,-1.5753,-1.5767,-1.5781,-1.5796,-1.5808,-1.5825,-1.5848,-1.5854,-1.5876,-1.5894,-1.5923,-1.5935,-1.5952,-1.595,-1.5956,-1.5957,-1.5959,-1.5959,-1.5927,-1.5956,-1.5956,-1.5956,-1.5956,-1.5956,0,-1.5729,-1.574,-1.5758,-1.578,-1.5795,-1.5797,-1.5815,-1.5827,-1.5847,-1.5863,-1.588,-1.5904,-1.5924,-1.594,-1.5961,-1.5972,-1.5974,-1.5977,-1.5976,-1.5978,-1.5959,-1.5954,-1.5975,-1.5975,-1.5975,-1.5975,-1.5975,-1.5974,-1.5744,-1.5767,-1.5774,-1.5803,-1.5815,-1.5836,-1.5846,-1.586,-1.5873,-1.5899,-1.5916,-1.5926,-1.5941,-1.5963,-1.5982,-1.5986,-1.5993,-1.5996,-1.6,-1.5982,-1.598,-1.5978,-1.5973,-1.5997,-1.5997,-1.6018,-1.6018,-1.6018]},{"header":{"parameterUnit":"m.s-1","parameterCategory":1,"la1":30.2991,"la2":30.254,"lo1":-89.0895,"lo2":-89.0444,"dy":0.0017,"dx":0.0017,"nx":28,"ny":28,"refTime":"2025-07-26T03:00:00:Z","depth":0,"parameterNumber":3,"parameterNumberName":"V-component_of_WINDS"},"data":[0,0,0,0,0,0,0,0,0,0,0,0,0,0,0,0,0,0,0,0,0,0,0,0,0,0,0,0,0,0,0,0,0,0,0,0,0,0,0,0,0,0,0,0,0,0,0,0,0,0,0,0,0,0,0,0,0,0,4.7821,4.7821,0,4.7842,4.7842,4.7842,4.7758,4.7756,4.7754,4.7751,4.7769,4.7772,4.7774,0,0,0,0,0,0,0,0,0,0,0,0,0,4.7705,4.7708,4.7821,4.7821,4.7822,4.7842,4.7842,4.7842,4.7759,4.7756,4.7753,4.775,4.7768,4.7771,4.7775,0,0,0,0,0,0,0,0,0,0,0,0,0,4.7744,4.7709,4.7821,4.7783,4.7779,4.7842,4.7842,4.7842,4.776,4.7756,4.7752,4.7749,4.7767,4.7771,4.7775,4.7875,0,0,4.7788,4.779,0,0,0,0,0,0,0,0,4.7742,4.7748,4.7788,4.7785,4.7782,4.7794,4.7808,4.7853,4.776,4.7767,4.7751,4.7747,4.778,4.7783,4.7795,4.7875,4.7876,4.7788,4.7791,4.7793,4.7794,0,0,0,0,0,0,0,4.7739,4.7747,4.7829,4.7789,4.7785,4.7763,4.7764,4.7816,4.7794,4.7766,4.776,4.7764,4.7778,4.7791,4.7795,4.7876,4.7788,4.7792,4.7794,4.7796,4.8037,4.8041,0,0,0,0,0,0,4.7742,4.7745,4.7829,4.783,4.7752,4.7768,4.7769,4.7794,4.7793,4.779,4.7767,4.776,4.7786,4.779,4.7795,4.7909,4.7792,4.7796,4.7799,4.8033,4.8038,4.8042,0,0,0,0,0,0,4.774,4.775,4.7828,4.7786,4.7794,4.7774,4.7802,4.7796,4.7809,4.7794,4.7789,4.7785,4.7783,4.7789,4.7855,4.7908,4.7798,4.7802,4.8028,4.8034,4.804,4.8139,0,0,0,0,0,0,4.7737,4.775,4.7789,4.7787,4.7797,4.7889,4.7805,4.7799,4.7817,4.7808,4.7809,4.7806,4.7781,4.7849,4.7859,4.7912,4.7805,4.8023,4.8031,4.8038,4.8131,4.8148,4.8162,0,0,0,0,0,4.7733,4.7816,4.7791,4.7802,4.7845,4.7892,4.7897,4.7867,4.7822,4.7859,4.7849,4.7806,4.7902,4.7857,4.7867,4.7922,4.802,4.8029,4.8037,4.8124,4.8144,4.8162,0,0,0,0,0,0,4.7823,4.7815,4.7787,4.7872,4.7884,4.7878,4.7925,4.789,4.7914,4.7904,4.7865,4.7866,4.7938,4.7937,4.7887,4.8017,4.7953,4.7964,4.8015,4.8034,4.8049,4.8047,4.7809,0,0,0,0,0,4.7853,4.7893,4.7884,4.7959,4.7967,4.7945,4.7965,4.7941,4.795,4.7954,4.7949,4.7959,4.7991,4.8013,4.8042,4.8131,4.8129,4.8174,4.819,4.8202,4.8212,4.8256,4.8275,4.8071,4.8071,4.8071,0,0,4.7914,4.7915,4.7943,4.7977,4.7983,4.8024,4.795,4.7997,4.8026,4.7961,4.8022,4.8019,4.8028,4.8105,4.8139,4.8106,4.8268,4.8214,4.8224,4.8226,4.8267,4.8287,4.8304,4.8077,4.8076,4.8075,0,0,4.8047,4.8053,4.8115,4.8123,4.8133,4.8118,4.8133,4.8133,4.8128,4.819,4.8141,4.8175,4.8232,4.8239,4.8251,4.8386,4.8346,4.8397,4.8476,4.852,4.8537,4.8551,4.8596,4.8613,4.8406,4.8407,4.8407,0,4.8121,4.8183,4.8151,4.8201,4.8217,4.8161,4.8223,4.8232,4.8251,4.8262,4.8225,4.8294,4.8296,4.8374,4.8407,4.8419,4.8433,4.8395,4.8537,4.8551,4.8563,4.8606,4.8624,4.8413,4.8412,4.8411,4.8411,0,4.8272,4.8316,4.8365,4.8385,4.8406,4.8462,4.8437,4.8463,4.8437,4.8426,4.8488,4.8488,4.8515,4.8533,4.8508,4.8606,4.8585,4.8544,4.8478,4.8589,4.8629,4.8645,4.8421,4.8419,4.8417,4.8416,0,0,4.846,4.8462,4.8481,4.8488,4.8495,4.8527,4.858,4.8607,4.8628,4.8644,4.8685,4.8734,4.8696,4.8709,4.8684,4.8724,4.8827,4.8677,4.8676,4.8702,4.8932,4.8961,4.8981,4.8802,4.8805,4.8808,4.8931,0,4.8588,4.8678,4.8651,4.8741,4.8779,4.8727,4.8773,4.8781,4.8772,4.8802,4.8791,4.8826,4.8774,4.8781,4.8818,4.8807,4.8872,4.8798,4.8838,4.884,4.8834,4.9002,4.9033,4.9149,4.8946,4.8949,4.8951,0,4.8748,4.877,4.8864,4.8863,4.8878,4.892,4.8941,4.8972,4.898,4.897,4.8985,4.8952,4.9002,4.8938,4.9005,4.8955,4.897,4.8968,4.8971,4.8971,4.89,4.9004,4.9185,4.9202,4.8975,4.8973,4.8972,0,4.8872,4.8925,4.8987,4.8996,4.8998,4.9028,4.9029,4.9034,4.9052,4.9071,4.9081,4.9106,4.9119,4.9138,4.9113,4.9069,4.9183,4.9117,4.9174,4.9175,4.9198,4.9196,4.9381,4.9213,4.9212,4.9212,4.9212,0,4.9015,4.9074,4.9043,4.9081,4.9145,4.9113,4.9177,4.9173,4.9177,4.9212,4.917,4.9203,4.9169,4.9199,4.918,4.9237,4.9244,4.9236,4.9229,4.9238,4.9239,4.9245,4.9235,4.9217,4.9216,4.9215,4.9214,0,4.9163,4.9145,4.9209,4.9206,4.9206,4.9253,4.9249,4.9283,4.9272,4.9317,4.9325,4.9306,4.934,4.9317,4.935,4.9337,4.9411,4.9395,4.9408,4.9403,4.946,4.9453,4.9653,4.9677,4.9496,4.9498,4.9499,0,4.9255,4.9299,4.93,4.9321,4.9326,4.936,4.9378,4.9348,4.9368,4.9381,4.9413,4.9443,4.9465,4.952,4.9509,4.9534,4.9516,4.9584,4.9519,4.9526,4.9513,4.951,4.9513,4.9596,4.9598,4.96,4.9602,0,4.9417,4.9406,4.9434,4.9458,4.9481,4.9499,4.9513,4.9532,4.9502,4.9527,4.956,4.9578,4.9612,4.9641,4.9662,4.9662,4.9626,4.9623,4.9636,4.9644,4.9649,4.9644,4.9441,4.9617,4.9616,4.9615,4.9614,4.9613,4.9538,4.9573,4.958,4.9611,4.9619,4.9633,4.9664,4.9657,4.9685,4.971,4.9692,4.9731,4.9737,4.9761,4.9766,4.9796,4.9767,4.9788,4.9793,4.9798,4.9805,4.9647,4.98,4.9799,4.9799,4.9798,4.9798,0,4.9695,4.9697,4.9727,4.9748,4.9773,4.9739,4.9752,4.9775,4.981,4.9819,4.9842,4.988,4.9908,4.99,4.9924,4.995,4.9934,4.9957,4.9953,4.9953,4.983,4.9814,4.9969,4.9969,4.9969,4.9969,4.9969,4.9969,4.978,4.9838,4.9828,4.9889,4.9889,4.9928,4.9939,4.9951,4.9958,5.0002,5.0026,5.002,5.0021,5.0046,5.007,5.0066,5.0076,5.0105,5.0095,4.9979,4.9962,4.9946,4.9931,5.0108,5.0108,5.0216,5.0217,5.0218]}]]